Weather History for Coldwater, MI

Change the Weather History Date:

Saturday, October 5, 2013

  Actual Average (KJYM) Record (KJYM)
Temperature  
Mean Temperature 70 °F -  
Max Temperature 77 °F 66 °F 84 °F (2007)
Min Temperature 63 °F 42 °F 23 °F (1965)
Cooling Degree Days 5    
Growing Degree Days 20 (Base 50)    
Moisture  
Dew Point 67 °F    
Average Humidity 90    
Maximum Humidity 99    
Minimum Humidity 69    
Precipitation  
Precipitation 0.00 in - - ()
Sea Level Pressure  
Sea Level Pressure 29.96 in    
Wind  
Wind Speed 5 mph (SSE)    
Max Wind Speed 12 mph    
Max Gust Speed 16 mph    
Visibility 8 miles    
Events Rain    
Averages and records for this station are not official NWS values.
T = Trace of Precipitation, MM = Missing Value Source: NWS Daily Summary

Daily Weather History Graph

Daily Weather History Graph

Search for Another Location

Airport:

Trip Planner

Search our weather history database for the weather conditions in past years. The results will help you decide how hot, cold, wet, or windy it might be!

Date:

Astronomy

Oct. 05, 2013 Rise Set
Actual Time 7:41 AM EDT 7:14 PM EDT
Civil Twilight 7:13 AM EDT 7:42 PM EDT
Nautical Twilight 6:41 AM EDT 8:14 PM EDT
Astronomical Twilight 6:09 AM EDT 8:47 PM EDT
Moon 8:21 AM EDT (10/5) 7:31 PM EDT (10/5)
Length of Visible Light 12h 28m
Length of Day
11h 32m
New Moon, 0% of the Moon is Illuminated
Oct 5
New Moon
Oct 11
First Quarter
Oct 18
Full
Oct 26
Last Quarter
Nov 3
New

Hourly Weather History & Observations

Time (EDT) Temp. Dew Point Humidity Pressure Visibility Wind Dir Wind Speed Gust Speed Precip Events Conditions
12:15 AM 67.6 °F 65.8 °F 94% 30.02 in 10.0 mi SSE 5.8 mph - N/A   Scattered Clouds
12:35 AM 67.3 °F 65.7 °F 95% 30.02 in 10.0 mi SSE 5.8 mph - N/A   Scattered Clouds
12:55 AM 66.7 °F 65.3 °F 95% 30.02 in 10.0 mi SE 6.9 mph - N/A   Scattered Clouds
1:14 AM 67.1 °F 65.3 °F 94% 30.02 in 10.0 mi SE 5.8 mph - N/A   Clear
1:35 AM 66.6 °F 65.3 °F 96% 30.02 in 10.0 mi SSE 5.8 mph - N/A   Scattered Clouds
1:55 AM 66.4 °F 65.1 °F 96% 30.02 in 10.0 mi SE 8.1 mph - N/A   Clear
2:14 AM 66.2 °F 65.1 °F 96% 30.02 in 10.0 mi SE 6.9 mph - N/A   Clear
2:35 AM 66.4 °F 65.3 °F 96% 30.02 in 10.0 mi SE 6.9 mph - N/A   Scattered Clouds
2:54 AM 66.7 °F 65.5 °F 96% 30.02 in 10.0 mi SSE 6.9 mph - N/A   Mostly Cloudy
3:15 AM 67.1 °F 65.5 °F 95% 30.01 in 10.0 mi SSE 6.9 mph - N/A   Mostly Cloudy
3:35 AM 67.3 °F 65.3 °F 93% 30.01 in 10.0 mi SE 6.9 mph - N/A   Overcast
3:54 AM 67.1 °F 65.1 °F 93% 30.01 in 10.0 mi SSE 5.8 mph - N/A   Mostly Cloudy
4:15 AM 66.6 °F 64.8 °F 94% 30.01 in 10.0 mi SSE 5.8 mph - N/A   Scattered Clouds
4:35 AM 66.2 °F 64.8 °F 95% 30.00 in 10.0 mi Calm Calm - N/A   Clear
4:54 AM 66.4 °F 65.1 °F 96% 30.00 in 10.0 mi Calm Calm - N/A   Clear
5:15 AM 67.6 °F 66.2 °F 95% 30.00 in 7.0 mi Calm Calm - N/A   Clear
5:35 AM 67.3 °F 65.8 °F 95% 30.00 in 7.0 mi South 3.5 mph - N/A   Clear
5:54 AM 67.3 °F 66.0 °F 96% 30.00 in 7.0 mi SSW 3.5 mph - N/A   Clear
6:15 AM 67.1 °F 65.8 °F 96% 30.01 in 5.0 mi Calm Calm - N/A   Clear
6:35 AM 66.7 °F 65.7 °F 96% 30.01 in 5.0 mi Calm Calm - N/A   Scattered Clouds
6:54 AM 65.7 °F 64.8 °F 97% 30.01 in 4.0 mi Calm Calm - N/A   Scattered Clouds
7:15 AM 63.3 °F 62.6 °F 97% 30.02 in 1.2 mi Calm Calm - N/A   Scattered Clouds
7:35 AM 63.9 °F 63.1 °F 97% 30.01 in 2.0 mi ENE 4.6 mph - N/A   Overcast
7:54 AM 65.5 °F 64.9 °F 98% 30.01 in 1.8 mi NE 4.6 mph - N/A   Overcast
8:15 AM 65.7 °F 65.3 °F 99% 30.01 in 2.5 mi Calm Calm - N/A   Overcast
8:34 AM 65.8 °F 64.9 °F 97% 30.01 in 3.0 mi East 3.5 mph - N/A   Overcast
8:55 AM 66.2 °F 65.3 °F 97% 30.01 in 3.0 mi East 4.6 mph - N/A   Overcast
9:15 AM 66.4 °F 65.3 °F 96% 30.01 in 4.0 mi East 3.5 mph - N/A   Overcast
9:34 AM 66.7 °F 65.5 °F 96% 30.01 in 4.0 mi ESE 3.5 mph - N/A   Overcast
9:55 AM 67.3 °F 65.8 °F 95% 30.01 in 2.5 mi ESE 3.5 mph - N/A   Overcast
10:14 AM 67.3 °F 65.7 °F 95% 30.01 in 4.0 mi SE 4.6 mph - N/A   Overcast
10:34 AM 68.7 °F 66.6 °F 93% 30.01 in 4.0 mi SE 6.9 mph - N/A   Overcast
10:55 AM 68.9 °F 66.9 °F 93% 30.01 in 4.0 mi SSE 5.8 mph - N/A   Overcast
11:14 AM 68.5 °F 66.7 °F 94% 30.01 in 3.0 mi SE 6.9 mph - N/A   Overcast
11:35 AM 68.9 °F 67.1 °F 94% 30.01 in 3.0 mi SSE 4.6 mph - N/A   Overcast
11:54 AM 68.9 °F 67.1 °F 94% 30.00 in 3.0 mi SSE 6.9 mph - N/A   Overcast
12:15 PM 70.0 °F 67.8 °F 93% 29.99 in 3.0 mi SE 5.8 mph - N/A   Overcast
12:35 PM 70.3 °F 67.6 °F 91% 29.99 in 4.0 mi South 4.6 mph - N/A   Overcast
12:54 PM 72.5 °F 67.1 °F 83% 29.98 in 7.0 mi SSE 6.9 mph - N/A   Mostly Cloudy
1:15 PM 74.3 °F 67.1 °F 78% 29.98 in 10.0 mi SSE 5.8 mph - N/A   Scattered Clouds
1:35 PM 74.8 °F 66.9 °F 76% 29.97 in 10.0 mi SSE 5.8 mph - N/A   Mostly Cloudy
1:54 PM 75.4 °F 67.1 °F 75% 29.97 in 10.0 mi SSE 5.8 mph - N/A   Scattered Clouds
2:15 PM 76.8 °F 67.3 °F 72% 29.96 in 10.0 mi SE 8.1 mph - N/A   Scattered Clouds
2:35 PM 76.5 °F 66.4 °F 71% 29.96 in 10.0 mi SSE 8.1 mph - N/A   Scattered Clouds
2:54 PM 75.6 °F 66.4 °F 73% 29.96 in 10.0 mi South 8.1 mph - N/A   Mostly Cloudy
3:15 PM 76.5 °F 66.9 °F 72% 29.95 in 10.0 mi South 5.8 mph - N/A   Mostly Cloudy
3:35 PM 77.0 °F 66.6 °F 70% 29.93 in 10.0 mi South 8.1 mph - N/A   Scattered Clouds
3:54 PM 77.7 °F 66.7 °F 69% 29.91 in 10.0 mi SE 11.5 mph 16.1 mph N/A   Scattered Clouds
4:15 PM 75.7 °F 66.6 °F 73% 29.92 in 10.0 mi SSE 9.2 mph - N/A   Mostly Cloudy
4:35 PM 75.4 °F 68.0 °F 78% 29.91 in 10.0 mi South 8.1 mph - N/A   Mostly Cloudy
4:54 PM 73.8 °F 68.2 °F 83% 29.92 in 10.0 mi South 9.2 mph - N/A Rain Light Rain
5:15 PM 74.1 °F 68.4 °F 82% 29.91 in 10.0 mi South 5.8 mph - N/A   Overcast
5:35 PM 74.3 °F 68.2 °F 81% 29.91 in 10.0 mi South 6.9 mph - N/A   Mostly Cloudy
5:54 PM 74.3 °F 68.2 °F 81% 29.89 in 10.0 mi SE 6.9 mph - N/A   Scattered Clouds
6:15 PM 73.8 °F 68.0 °F 82% 29.90 in 10.0 mi SSE 4.6 mph - N/A   Clear
6:34 PM 73.4 °F 68.0 °F 83% 29.90 in 10.0 mi SE 4.6 mph - N/A   Scattered Clouds
6:55 PM 72.7 °F 68.0 °F 85% 29.90 in 10.0 mi SSE 3.5 mph - N/A   Scattered Clouds
7:15 PM 72.7 °F 68.0 °F 85% 29.90 in 10.0 mi SE 3.5 mph - N/A   Mostly Cloudy
7:34 PM 72.5 °F 68.0 °F 86% 29.89 in 10.0 mi SE 3.5 mph - N/A   Mostly Cloudy
7:55 PM 72.0 °F 68.0 °F 87% 29.89 in 10.0 mi SE 3.5 mph - N/A   Mostly Cloudy
8:15 PM 71.2 °F 68.2 °F 90% 29.89 in 10.0 mi SE 4.6 mph - N/A Rain Light Rain
8:34 PM 71.4 °F 68.4 °F 90% 29.89 in 10.0 mi South 4.6 mph - N/A Rain Rain
8:55 PM 70.9 °F 68.5 °F 92% 29.89 in 10.0 mi South 3.5 mph - N/A Rain Light Rain
9:15 PM 71.1 °F 68.5 °F 92% 29.89 in 10.0 mi South 3.5 mph - N/A   Mostly Cloudy
9:34 PM 70.7 °F 68.4 °F 92% 29.89 in 10.0 mi South 3.5 mph - N/A   Mostly Cloudy
9:55 PM 70.3 °F 68.4 °F 93% 29.89 in 10.0 mi Calm Calm - N/A   Clear
10:15 PM 69.8 °F 68.0 °F 94% 29.88 in 10.0 mi Calm Calm - N/A   Mostly Cloudy
10:34 PM 69.8 °F 68.2 °F 95% 29.88 in 10.0 mi Calm Calm - N/A   Overcast
10:55 PM 70.0 °F 68.2 °F 94% 29.88 in 10.0 mi South 3.5 mph - N/A   Overcast
11:15 PM 70.2 °F 68.2 °F 93% 29.86 in 10.0 mi South 3.5 mph - N/A   Overcast
11:35 PM 70.2 °F 68.2 °F 93% 29.86 in 10.0 mi SSW 8.1 mph - N/A   Overcast
11:55 PM 70.0 °F 68.0 °F 93% 29.85 in 10.0 mi South 6.9 mph - N/A   Overcast